Date String (YYYY-MM-DD hh:mm:ss) UTC,Instrument flags,absolute air pressure of the measurement (hPa),sample flow rate (lpm),inlet stack bypass flow (lpm),air temperature of the measurement (°C),ambient temperature measured by the external sensor (°C),aerosol sample conditioner tube jacket temperature (°C),OPC LED temperature (°C),internal box temperature (°C),relative humidity of the measurement (%),span deviation,mass concentration of particles derived from Lorenz-Mie calculation of OPC scattering (μg/m³),mass concentration of particles derived from Lorenz-Mie calculation of OPC scattering (μg/m³),mass concentration of particles derived from Lorenz-Mie calculation of OPC scattering (μg/m³)
DateTimeUTC,F1_M11,P_M11,Q1_M11,Q2_M11,T1_M11,T2_M11,T3_M11,T4_M11,T5_M11,U1_M11,ZSPAN_M11,X2_M11,X0_M11,X1_M11
2023-09-14 15:00:00,SystemResetWarning,0833.0,5.00,000.00,028.5,027.1,000.0,036.8,030.1,22.7,0000.0,0004.90,0011.62,0004.28
2023-09-14 15:01:00,SystemResetWarning,0833.1,5.00,000.00,028.5,027.1,000.0,036.8,030.2,22.8,0000.0,0005.01,0011.24,0004.30
2023-09-14 15:02:00,SystemResetWarning,0833.1,5.00,000.00,028.6,027.2,000.0,036.8,030.2,22.2,0000.0,0005.10,0011.20,0004.32
2023-09-14 15:03:00,SystemResetWarning,0833.4,5.00,000.00,028.6,027.2,000.0,036.8,030.2,21.9,0000.0,0005.14,0011.62,0004.32
2023-09-14 15:04:00,SystemResetWarning,0833.1,5.00,000.00,028.6,027.2,000.0,036.9,030.2,22.6,0000.0,0005.21,0012.95,0004.34
2023-09-14 15:05:00,SystemResetWarning,0833.2,4.99,000.00,028.6,027.3,000.0,036.9,030.3,23.2,0000.0,0005.25,0013.31,0004.35
2023-09-14 15:06:00,SystemResetWarning,0833.1,5.00,000.00,028.6,027.3,000.0,036.9,030.3,23.2,0000.0,0005.23,0012.58,0004.34
2023-09-14 15:07:00,SystemResetWarning,0833.2,5.02,000.00,028.7,027.3,000.0,036.9,030.3,23.7,0000.0,0005.20,0012.19,0004.36
2023-09-14 15:08:00,SystemResetWarning,0833.2,5.00,000.00,028.7,027.3,000.0,036.9,030.3,23.8,0000.0,0005.18,0012.98,0004.36
2023-09-14 15:09:00,SystemResetWarning,0833.2,5.00,000.00,028.7,027.3,000.0,036.9,030.3,23.9,0000.0,0005.13,0013.11,0004.36
2023-09-14 15:10:00,SystemResetWarning,0833.2,5.00,000.00,028.7,027.3,000.0,036.9,030.4,23.8,0000.0,0005.17,0013.47,0004.35
2023-09-14 15:11:00,SystemResetWarning,0833.2,4.99,000.00,028.7,027.4,000.0,036.9,030.4,23.8,0000.0,0005.19,0014.66,0004.35
2023-09-14 15:12:00,SystemResetWarning,0833.2,5.00,000.00,028.7,027.4,000.0,037.0,030.4,24.2,0000.0,0005.16,0016.15,0004.33
2023-09-14 15:13:00,SystemResetWarning,0833.2,5.00,000.00,028.8,027.4,000.0,037.0,030.4,24.2,0000.0,0005.15,0016.83,0004.34
2023-09-14 15:14:00,SystemResetWarning,0833.2,5.00,000.00,028.8,027.4,000.0,037.0,030.4,24.6,0000.0,0005.14,0016.30,0004.35
2023-09-14 15:15:00,SystemResetWarning,0833.2,5.00,000.00,028.8,027.4,000.0,037.0,030.5,24.6,0000.0,0005.17,0015.61,0004.35
2023-09-14 15:16:00,SystemResetWarning,0833.2,5.00,000.00,028.8,027.5,000.0,037.0,030.5,24.4,0000.0,0005.22,0016.39,0004.34
2023-09-14 15:17:00,SystemResetWarning,0833.3,5.02,000.00,028.8,027.5,000.0,037.0,030.5,24.4,0000.0,0005.25,0016.47,0004.34
2023-09-14 15:18:00,SystemResetWarning,0833.3,5.00,000.00,028.8,027.5,000.0,037.0,030.5,24.2,0000.0,0005.25,0016.56,0004.33
2023-09-14 15:19:00,SystemResetWarning,0833.3,4.99,000.00,028.8,027.5,000.0,037.1,030.5,24.3,0000.0,0005.28,0016.28,0004.33
2023-09-14 15:20:00,SystemResetWarning,0833.2,4.99,000.00,028.8,027.5,000.0,037.1,030.5,24.6,0000.0,0005.28,0016.18,0004.31
2023-09-14 15:21:00,SystemResetWarning,0833.3,5.00,000.00,028.9,027.5,000.0,037.1,030.5,24.8,0000.0,0005.23,0015.81,0004.30
2023-09-14 15:22:00,SystemResetWarning,0833.3,5.01,000.00,028.9,027.5,000.0,037.1,030.5,24.8,0000.0,0005.21,0014.77,0004.30
2023-09-14 15:23:00,SystemResetWarning,0833.3,5.00,000.00,028.9,026.8,000.0,037.1,030.3,24.7,0000.0,0005.17,0013.60,0004.30
2023-09-14 15:24:00,SystemResetWarning,0833.2,5.00,000.00,028.7,025.4,000.0,037.0,030.0,24.5,0000.0,0005.16,0013.12,0004.29
2023-09-14 15:25:00,SystemResetWarning,0833.3,5.00,000.00,028.7,025.1,000.0,037.0,029.9,24.6,0000.0,0005.14,0013.37,0004.27
2023-09-14 15:26:00,SystemResetWarning,0833.3,5.01,000.00,028.6,025.3,000.0,037.0,029.8,24.5,0000.0,0005.08,0013.12,0004.27
2023-09-14 15:27:00,SystemResetWarning,0833.3,5.01,000.00,028.5,025.6,000.0,037.0,029.9,24.4,0000.0,0005.00,0012.08,0004.26
2023-09-14 15:28:00,SystemResetWarning,0833.4,4.99,000.00,028.5,025.8,000.0,036.9,029.9,24.4,0000.0,0004.98,0012.05,0004.26
2023-09-14 15:29:00,SystemResetWarning,0833.4,5.00,000.00,028.5,026.1,000.0,036.9,030.0,24.2,0000.0,0004.97,0011.89,0004.26
2023-09-14 15:30:00,SystemResetWarning,0833.4,5.01,000.00,028.5,026.3,000.0,036.9,030.0,24.0,0000.0,0004.92,0011.16,0004.24
2023-09-14 15:31:00,SystemResetWarning,0833.4,5.01,000.00,028.5,026.5,000.0,036.9,030.1,23.9,0000.0,0004.88,0010.63,0004.25
2023-09-14 15:32:00,SystemResetWarning,0833.4,4.99,000.00,028.5,026.7,000.0,036.9,030.1,23.1,0000.0,0004.86,0010.06,0004.26
2023-09-14 15:33:00,SystemResetWarning,0833.4,4.99,000.00,028.5,026.8,000.0,036.9,030.1,23.1,0000.0,0004.87,0009.94,0004.27
2023-09-14 15:34:00,SystemResetWarning,0833.5,5.00,000.00,028.5,026.9,000.0,036.9,030.1,23.5,0000.0,0004.86,0009.58,0004.27
2023-09-14 15:35:00,SystemResetWarning,0833.5,5.01,000.00,028.5,026.9,000.0,036.9,030.2,23.5,0000.0,0004.84,0009.51,0004.28
2023-09-14 15:36:00,SystemResetWarning,0833.5,5.01,000.00,028.5,027.0,000.0,036.9,030.2,22.6,0000.0,0004.86,0009.29,0004.28
2023-09-14 15:37:00,SystemResetWarning,0833.5,5.00,000.00,028.6,027.1,000.0,036.9,030.2,22.5,0000.0,0004.88,0009.22,0004.30
2023-09-14 15:38:00,SystemResetWarning,0833.5,5.00,000.00,028.6,027.1,000.0,036.9,030.2,22.7,0000.0,0004.91,0009.45,0004.32
2023-09-14 15:39:00,SystemResetWarning,0833.5,5.00,000.00,028.6,027.2,000.0,036.9,030.2,22.7,0000.0,0004.95,0010.50,0004.33
2023-09-14 15:40:00,SystemResetWarning,0833.5,4.99,000.00,028.6,027.2,000.0,036.9,030.3,22.5,0000.0,0004.94,0010.72,0004.33
2023-09-14 15:41:00,SystemResetWarning,0833.5,5.00,000.00,028.6,027.2,000.0,036.9,030.3,22.5,0000.0,0004.95,0010.79,0004.34
2023-09-14 15:42:00,SystemResetWarning,0833.5,5.00,000.00,028.6,027.3,000.0,036.9,030.3,22.5,0000.0,0004.95,0010.81,0004.34
2023-09-14 15:43:00,SystemResetWarning,0833.6,4.99,000.00,028.7,027.3,000.0,036.9,030.3,23.1,0000.0,0004.98,0010.89,0004.35
2023-09-14 15:44:00,SystemResetWarning,0833.6,5.00,000.00,028.7,027.3,000.0,036.9,030.4,23.0,0000.0,0005.01,0011.76,0004.36
2023-09-14 15:45:00,SystemResetWarning,0833.6,5.00,000.00,028.7,027.4,000.0,036.9,030.4,23.1,0000.0,0005.02,0012.17,0004.38
2023-09-14 15:46:00,SystemResetWarning,0833.6,5.01,000.00,028.7,027.4,000.0,037.0,030.4,23.1,0000.0,0005.00,0011.92,0004.38
2023-09-14 15:47:00,SystemResetWarning,0833.6,5.00,000.00,028.7,027.4,000.0,037.0,030.4,23.3,0000.0,0005.02,0011.88,0004.40
2023-09-14 15:48:00,SystemResetWarning,0833.6,4.99,000.00,028.7,026.8,000.0,037.0,030.3,23.1,0000.0,0005.01,0012.53,0004.41
2023-09-14 15:49:00,SystemResetWarning,0833.5,5.00,000.00,028.7,025.3,000.0,036.9,029.9,23.4,0000.0,0005.01,0012.35,0004.42
2023-09-14 15:50:00,SystemResetWarning,0833.5,5.00,000.00,028.6,025.1,000.0,036.9,029.8,23.0,0000.0,0005.07,0012.23,0004.44
2023-09-14 15:51:00,SystemResetWarning,0833.5,5.01,000.00,028.5,025.2,000.0,036.8,029.7,23.2,0000.0,0005.11,0012.06,0004.47
2023-09-14 15:52:00,SystemResetWarning,0833.6,5.01,000.00,028.4,025.5,000.0,036.8,029.8,23.4,0000.0,0005.14,0012.16,0004.49
2023-09-14 15:53:00,SystemResetWarning,0833.6,4.99,000.00,028.4,025.8,000.0,036.8,029.9,23.4,0000.0,0005.16,0012.13,0004.52
2023-09-14 15:54:00,SystemResetWarning,0833.6,5.00,000.00,028.4,026.0,000.0,036.8,029.9,23.5,0000.0,0005.18,0012.16,0004.54
2023-09-14 15:55:00,SystemResetWarning,0833.6,5.01,000.00,028.4,026.2,000.0,036.8,030.0,23.7,0000.0,0005.17,0011.81,0004.56
2023-09-14 15:56:00,SystemResetWarning,0833.6,5.00,000.00,028.4,026.4,000.0,036.8,030.0,24.1,0000.0,0005.20,0011.22,0004.57
2023-09-14 15:57:00,SystemResetWarning,0833.6,5.00,000.00,028.4,026.6,000.0,036.8,030.0,23.8,0000.0,0005.26,0011.47,0004.59
2023-09-14 15:58:00,SystemResetWarning,0833.6,5.00,000.00,028.4,026.7,000.0,036.8,030.1,23.5,0000.0,0005.29,0011.41,0004.62
2023-09-14 15:59:00,SystemResetWarning,0833.6,5.00,000.00,028.4,026.8,000.0,036.8,030.1,23.8,0000.0,0005.30,0010.64,0004.63
